AL7BX-WX Weather Reports


time (UTC)temp
C
wind
direction
speed
KPH
gust
KPH
rain 1hr
cm
rain 24hr
cm
rain mn
cm
humidity
%
barometer
mb
20260905042703 22 148 8.0 20.9 0.00 0.00 0.00 28
20260905041803 22 143 8.0 19.3 0.00 0.00 0.00 29
20260905041113 21 148 6.4 16.1 0.00 0.00 0.00 30
20260905040212 21 148 4.8 11.3 0.00 0.00 0.00 31
20260905035403 21 175 3.2 9.7 0.00 0.00 0.00 31
20260905034503 21 142 4.8 9.7 0.00 0.00 0.00 32
20260905033603 21 146 3.2 8.0 0.00 0.00 0.00 32
20260905032703 22 151 4.8 16.1 0.00 0.00 0.00 31
20260905031803 22 170 8.0 19.3 0.00 0.00 0.00 31
20260905030903 22 175 6.4 17.7 0.00 0.00 0.00 31
20260905030214 22 181 8.0 20.9 0.00 0.00 0.00 31
20260905025614 22 188 9.7 20.9 0.00 0.00 0.00 31
20260905024503 22 202 6.4 20.9 0.00 0.00 0.00 31
20260905023814 22 205 8.0 16.1 0.00 0.00 0.00 31
20260905022703 22 189 9.7 20.9 0.00 0.00 0.00 30
20260905022013 22 192 9.7 20.9 0.00 0.00 0.00 30
20260905020903 23 191 11.3 27.4 0.00 0.00 0.00 30
20260905020003 23 194 11.3 27.4 0.00 0.00 0.00 30
20260905015403 23 191 11.3 30.6 0.00 0.00 0.00 30
20260905014503 24 189 12.9 30.6 0.00 0.00 0.00 29
20260905013603 25 188 14.5 33.8 0.00 0.00 0.00 28
20260905012703 25 187 14.5 35.4 0.00 0.00 0.00 29
20260905011803 25 189 16.1 32.2 0.00 0.00 0.00 29
20260905010903 25 186 14.5 35.4 0.00 0.00 0.00 28
20260905010003 26 186 16.1 35.4 0.00 0.00 0.00 27
20260905005613 26 188 16.1 32.2 0.00 0.00 0.00 27
20260905004503 26 183 17.7 33.8 0.00 0.00 0.00 27
20260905003603 26 182 14.5 37.0 0.00 0.00 0.00 28
20260905002913 26 187 16.1 32.2 0.00 0.00 0.00 28
20260905001803 26 186 16.1 32.2 0.00 0.00 0.00 28
20260905000903 26 193 14.5 41.8 0.00 0.00 0.00 28
20260905000004 27 194 16.1 35.4 0.00 0.00 0.00 29
20260904235403 27 192 17.7 35.4 0.00 0.00 0.00 28
20260904234503 27 192 16.1 30.6 0.00 0.00 0.00 29
20260904233603 27 186 17.7 37.0 0.00 0.00 0.00 29
20260904232703 27 182 17.7 35.4 0.00 0.00 0.00 28
20260904231803 27 176 14.5 30.6 0.00 0.00 0.00 29
20260904231113 27 190 16.1 40.2 0.00 0.00 0.00 28
20260904230003 28 160 14.5 30.6 0.00 0.00 0.00 27
20260904225403 28 174 14.5 30.6 0.00 0.00 0.00 28
20260904224503 27 149 16.1 35.4 0.00 0.00 0.00 27
20260904223603 28 162 17.7 38.6 0.00 0.00 0.00 26
20260904222703 28 173 20.9 41.8 0.00 0.00 0.00 26
20260904222014 27 187 20.9 41.8 0.00 0.00 0.00 26
20260904220903 28 171 17.7 30.6 0.00 0.00 0.00 28
20260904220003 28 175 17.7 30.6 0.00 0.00 0.00 26
20260904215403 28 165 17.7 30.6 0.00 0.00 0.00 28
20260904214503 28 165 20.9 41.8 0.00 0.00 0.00 26
20260904213603 27 174 22.5 48.3 0.00 0.00 0.00 27
20260904212703 27 176 20.9 43.5 0.00 0.00 0.00 28
20260904211803 27 174 20.9 41.8 0.00 0.00 0.00 28
20260904210903 27 172 24.1 46.7 0.00 0.00 0.00 28
20260904210003 27 181 20.9 45.1 0.00 0.00 0.00 29
20260904205403 27 175 20.9 45.1 0.00 0.00 0.00 29
20260904204713 27 176 22.5 49.9 0.00 0.00 0.00 28
20260904203814 27 184 20.9 43.5 0.00 0.00 0.00 29
20260904202703 27 170 22.5 45.1 0.00 0.00 0.00 28
20260904202013 27 175 24.1 43.5 0.00 0.00 0.00 27
20260904200903 27 143 16.1 30.6 0.00 0.00 0.00 29
20260904200003 27 157 17.7 40.2 0.00 0.00 0.00 30
20260904195403 26 154 19.3 40.2 0.00 0.00 0.00 30
20260904194503 26 160 16.1 30.6 0.00 0.00 0.00 32
20260904193603 26 160 16.1 30.6 0.00 0.00 0.00 31
20260904192703 26 161 17.7 35.4 0.00 0.00 0.00 31
20260904191803 26 164 16.1 37.0 0.00 0.00 0.00 32
20260904190903 26 172 22.5 46.7 0.00 0.00 0.00 32
20260904190003 26 165 20.9 41.8 0.00 0.00 0.00 31
20260904185403 25 169 24.1 41.8 0.00 0.00 0.00 32
20260904184714 25 174 22.5 41.8 0.00 0.00 0.00 31
20260904183603 25 179 22.5 45.1 0.00 0.00 0.00 32
20260904182703 25 182 20.9 46.7 0.00 0.00 0.00 33
20260904181803 24 184 22.5 41.8 0.00 0.00 0.00 35
20260904180903 25 162 20.9 51.5 0.00 0.00 0.00 34
20260904180213 25 172 20.9 46.7 0.00 0.00 0.00 33
20260904175403 24 167 24.1 46.7 0.00 0.00 0.00 34
20260904174503 24 174 24.1 41.8 0.00 0.00 0.00 34
20260904173603 23 175 22.5 41.8 0.00 0.00 0.00 34
20260904172703 23 170 22.5 53.1 0.00 0.00 0.00 34
20260904171803 23 167 24.1 41.8 0.00 0.00 0.00 34
20260904170903 23 165 22.5 46.7 0.00 0.00 0.00 35
20260904170003 23 153 17.7 35.4 0.00 0.00 0.00 34
20260904165403 23 159 19.3 35.4 0.00 0.00 0.00 34
20260904164503 23 151 19.3 35.4 0.00 0.00 0.00 34
20260904163603 23 148 17.7 38.6 0.00 0.00 0.00 35
20260904162703 22 151 19.3 37.0 0.00 0.00 0.00 35
20260904161803 22 151 20.9 40.2 0.00 0.00 0.00 36
20260904160903 22 157 20.9 41.8 0.00 0.00 0.00 35
20260904160003 22 144 20.9 41.8 0.00 0.00 0.00 35
20260904155403 22 151 17.7 43.5 0.00 0.00 0.00 35
20260904154503 22 159 17.7 40.2 0.00 0.00 0.00 35
20260904153603 21 153 19.3 40.2 0.00 0.00 0.00 35
20260904152703 21 150 16.1 37.0 0.00 0.00 0.00 35
20260904151803 21 153 17.7 40.2 0.00 0.00 0.00 35
20260904150903 21 152 16.1 32.2 0.00 0.00 0.00 35
20260904150003 21 156 14.5 32.2 0.00 0.00 0.00 33
20260904145403 21 149 14.5 33.8 0.00 0.00 0.00 33
20260904144503 20 158 14.5 40.2 0.00 0.00 0.00 34
20260904143603 20 156 12.9 41.8 0.00 0.00 0.00 34
20260904142703 20 157 12.9 27.4 0.00 0.00 0.00 33
20260904141803 20 155 12.9 27.4 0.00 0.00 0.00 32
20260904141114 19 148 16.1 27.4 0.00 0.00 0.00 32
20260904140003 18 145 11.3 33.8 0.00 0.00 0.00 31
20260904135613 18 146 11.3 22.5 0.00 0.00 0.00 31
20260904134714 18 149 11.3 29.0 0.00 0.00 0.00 30
20260904133603 18 154 9.7 24.1 0.00 0.00 0.00 31
20260904132703 18 152 9.7 27.4 0.00 0.00 0.00 32
20260904131803 18 162 8.0 33.8 0.00 0.00 0.00 33
20260904130903 18 154 12.9 33.8 0.00 0.00 0.00 33
20260904130003 18 146 11.3 22.5 0.00 0.00 0.00 34
20260904125403 18 147 11.3 22.5 0.00 0.00 0.00 34
20260904124714 18 147 9.7 22.5 0.00 0.00 0.00 36
20260904123603 18 140 11.3 25.7 0.00 0.00 0.00 38
20260904122703 19 147 12.9 32.2 0.00 0.00 0.00 41
20260904121803 19 144 14.5 35.4 0.00 0.00 0.00 41
20260904120903 19 148 12.9 25.7 0.00 0.00 0.00 42
20260904120003 19 146 16.1 40.2 0.00 0.00 0.00 44
20260904115403 19 147 14.5 40.2 0.00 0.00 0.00 44
20260904114503 19 146 12.9 24.1 0.00 0.00 0.00 45
20260904113603 20 146 14.5 29.0 0.00 0.00 0.00 44
20260904112703 20 147 11.3 32.2 0.00 0.00 0.00 45
20260904112013 20 148 11.3 32.2 0.00 0.00 0.00 45
20260904110903 20 145 14.5 27.4 0.00 0.00 0.00 46
20260904110003 20 141 14.5 25.7 0.00 0.00 0.00 46
20260904105403 20 140 14.5 32.2 0.00 0.00 0.00 46
20260904104713 20 146 14.5 35.4 0.00 0.00 0.00 46
20260904103603 20 141 14.5 37.0 0.00 0.00 0.00 46
20260904102703 20 145 11.3 24.1 0.00 0.00 0.00 46
20260904101803 20 142 12.9 25.7 0.00 0.00 0.00 45
20260904100903 20 142 12.9 32.2 0.00 0.00 0.00 45
20260904100003 20 145 16.1 32.2 0.00 0.00 0.00 45
20260904095403 20 149 14.5 29.0 0.00 0.00 0.00 44
20260904094503 20 163 12.9 27.4 0.00 0.00 0.00 44
20260904093603 20 163 12.9 27.4 0.00 0.00 0.00 45
20260904092703 20 156 12.9 29.0 0.00 0.00 0.00 46
20260904091803 20 155 14.5 43.5 0.00 0.00 0.00 46
20260904090903 20 153 14.5 27.4 0.00 0.00 0.00 45
20260904090004 20 148 12.9 32.2 0.00 0.00 0.00 44
20260904085403 20 150 12.9 25.7 0.00 0.00 0.00 44
20260904084503 20 147 12.9 27.4 0.00 0.00 0.00 44
20260904083603 21 146 16.1 33.8 0.00 0.00 0.00 43
20260904082703 21 147 17.7 43.5 0.00 0.00 0.00 43
20260904081803 20 144 12.9 37.0 0.00 0.00 0.00 41
20260904080903 20 155 12.9 27.4 0.00 0.00 0.00 39
20260904080003 20 156 12.9 29.0 0.00 0.00 0.00 37
20260904075403 20 162 12.9 27.4 0.00 0.00 0.00 36
20260904074503 20 163 12.9 25.7 0.00 0.00 0.00 33
20260904073603 20 161 11.3 29.0 0.00 0.00 0.00 31
20260904072703 20 162 11.3 25.7 0.00 0.00 0.00 30
20260904071803 20 167 11.3 24.1 0.00 0.00 0.00 29
20260904070903 20 166 12.9 29.0 0.00 0.00 0.00 28
20260904070003 20 168 14.5 25.7 0.00 0.00 0.00 27
20260904065403 20 165 14.5 27.4 0.00 0.00 0.00 26
20260904064503 20 174 12.9 35.4 0.00 0.00 0.00 25
20260904063603 20 170 14.5 25.7 0.00 0.00 0.00 24
20260904062703 20 172 12.9 32.2 0.00 0.00 0.00 23
20260904061803 20 169 12.9 32.2 0.00 0.00 0.00 22
20260904060903 21 169 11.3 25.7 0.00 0.00 0.00 22
20260904060007 21 167 12.9 33.8 0.00 0.00 0.00 21
20260904055614 21 164 11.3 33.8 0.00 0.00 0.00 21
20260904054503 21 160 9.7 20.9 0.00 0.00 0.00 20
20260904053603 21 157 9.7 20.9 0.00 0.00 0.00 19
20260904052703 21 159 11.3 25.7 0.00 0.00 0.00 19
20260904051803 21 155 9.7 24.1 0.00 0.00 0.00 18
20260904050903 21 144 9.7 20.9 0.00 0.00 0.00 18
20260904050214 21 156 11.3 30.6 0.00 0.00 0.00 18
20260904045613 21 154 11.3 24.1 0.00 0.00 0.00 18
20260904044503 21 146 8.0 22.5 0.00 0.00 0.00 17
20260904043814 21 148 11.3 24.1 0.00 0.00 0.00 17